Regional Weather Roundup
Issued by NWS Bismarck, ND

Home | Current Version | Previous Version | Text Only | Print | Product List | Glossary On
Versions: 1 2 3 4 5 6 7 8 9 10 11 12 13 14 15 16 17 18 19 20 21 22 23 24 25 26 27 28 29 30 31 32 33 34 35 36 37 38 39 40 41 42 43 44 45 46 47 48 49 50
000
ASUS43 KBIS 262310
RWRBIS

NWR BROADCAST TEXT
NATIONAL WEATHER SERVICE BISMARCK ND
600 PM CDT FRI MAY 26 2017

NOTE: "FAIR" INDICATES FEW OR NO CLOUDS BELOW 12,000 FEET WITH NO
SIGNIFICANT WEATHER AND/OR OBSTRUCTIONS TO VISIBILITY.


CITY           SKY/WX    TMP DP  RH WIND       PRES   REMARKS
WILLISTON      PTSUNNY   67  33  28 NW13G23   29.77S
MINOT          FAIR      68  36  30 NW17      29.73R
MINOT AFB      FAIR      66  36  33 W20G25    29.71S
BISMARCK       CLOUDY    67  39  35 NW13G23   29.80R
DICKINSON      PTSUNNY   64  30  27 NW18G28   29.80S
GARRISON         N/A     65  34  31 NW20      29.76S
HETTINGER ARPT FAIR      67  34  29 NW15      29.85F
JAMESTOWN      CLOUDY    63  43  48 NW17      29.77R
HAZEN          MOCLDY    66  34  30 NW15      29.80S
LINTON         MOCLDY    66  46  48 NW13G18   29.83R
MANDAN         MOCLDY    66  37  34 NW12      29.80S
STANLEY        MOCLDY    64  32  29 NW16G23   29.77S
TIOGA          MOCLDY    66  30  26 NW21G36   29.76S
WATFORD CITY   FAIR      68  32  26 NW17      29.77S
$$

CITY           SKY/WX    TMP DP  RH WIND       PRES   REMARKS
GRAND FORKS    FAIR      71  46  40 W16G24    29.70R
GRAND FORKS AF FAIR      66  45  47 W15       29.72R
DEVILS LAKE    PTSUNNY   64  41  42 W22G30    29.73R
FARGO          FAIR      69  43  38 W22       29.74R
CAVALIER       MOCLDY    64  46  52 W7        29.67R
GRAFTON        MOCLDY    68  46  45 W20       29.70S
GWINNER        CLEAR     66  43  42 MISG      29.79S
LANGDON        MOCLDY    64  45  48 W22       29.70R
ROLLA          FAIR      63  43  48 W17       29.71R
$$

CITY           SKY/WX    TMP DP  RH WIND       PRES   REMARKS
ABERDEEN       FAIR      70  38  31 NW15G23   29.80S
MOBRIDGE       FAIR      72  38  29 NW15      29.78S
BUFFALO          N/A     64  36  35 NW14      29.81S
RAPID CITY     CLOUDY    61  39  44 S7        29.91R
GLASGOW        PTSUNNY   63  38  39 W18G28    29.83R
SIDNEY         FAIR      70  33  25 NW18      29.79S
WOLF POINT     FAIR      68  32  26 NW12      29.80S
GLENDIVE       FAIR      68  33  27 NW13G18   29.83S
MILES CITY     PTSUNNY   68  29  23 NW7       29.86S
BAKER          FAIR      64  32  30 NW12      29.87S
$$

CITY           SKY/WX    TMP DP  RH WIND       PRES   REMARKS
BILLINGS       PTSUNNY   61  31  32 E5        29.92S
GREAT FALLS    PTSUNNY   61  34  36 NE7       29.90F
REGINA         MOSUNNY   66  34  30 NW21G33   29.68S
ESTEVAN        PTSUNNY   64  36  34 W24G35    29.71R
$$





USA.gov is the U.S. government's official web portal to all federal, state and local government web resources and services.